When you browse on this site, cookies collect data to enhance your experience and personalize the content and advertising you see.
Visit our Privacy Policy to learn more. By continuing to use the site, you agree to this use of cookies and data.
  • In Romania
  • List of Countries
  • For 7 days
  • Water Temperature
  • Satellite Maps
  • Weather Map
  • Weather Widgets
  • user-avatar
    Login

    Hourly Weather Wien

    Today, 17 June, Monday

    Time Temperature Precipitation Wind Pressure Humidity
    00:00 +19°C° 0 mm 4 mps 746 mmHg 78%
    01:00 +18°C° 0 mm 4 mps 746 mmHg 80%
    02:00 +17°C° 0 mm 4 mps 746 mmHg 81%
    03:00 +17°C° 0 mm 4 mps 746 mmHg 81%
    04:00 +17°C° 0 mm 4 mps 746 mmHg 82%
    05:00 +18°C° 0 mm 4 mps 746 mmHg 79%
    06:00 +18°C° 0 mm 4 mps 746 mmHg 75%
    07:00 +19°C° 0 mm 4 mps 746 mmHg 71%
    08:00 +21°C° 0 mm 4 mps 746 mmHg 67%
    09:00 +22°C° 0 mm 4 mps 746 mmHg 64%
    10:00 +23°C° 0 mm 4 mps 746 mmHg 60%
    11:00 +25°C° 0 mm 4 mps 746 mmHg 57%
    12:00 +26°C° 0 mm 4 mps 746 mmHg 54%
    13:00 +26°C° 0 mm 5 mps 746 mmHg 52%
    14:00 +26°C° 0 mm 4 mps 746 mmHg 53%
    15:00 +26°C° 0 mm 4 mps 745 mmHg 54%
    16:00 +26°C° 0 mm 4 mps 745 mmHg 55%
    17:00 +25°C° 0 mm 4 mps 745 mmHg 59%
    18:00 +24°C° 0 mm 3 mps 745 mmHg 63%
    19:00 +22°C° 0 mm 3 mps 745 mmHg 66%
    20:00 +21°C° 0 mm 2 mps 745 mmHg 68%
    21:00 +20°C° 0 mm 2 mps 745 mmHg 69%
    22:00 +19°C° 0 mm 2 mps 745 mmHg 70%
    23:00 +18°C° 0 mm 2 mps 745 mmHg 70%

    Tomorrow, 18 June, Tuesday

    Time Temperature Precipitation Wind Pressure Humidity
    00:00 +18°C° 0 mm 2 mps 745 mmHg 71%
    01:00 +19°C° 0 mm 1 mps 745 mmHg 72%
    02:00 +18°C° 0 mm 1 mps 745 mmHg 73%
    03:00 +18°C° 0 mm 1 mps 744 mmHg 75%
    04:00 +16°C° 0 mm 1 mps 744 mmHg 77%
    05:00 +18°C° 0 mm 1 mps 744 mmHg 73%
    06:00 +20°C° 0 mm 1 mps 744 mmHg 69%
    07:00 +21°C° 0 mm 1 mps 744 mmHg 66%
    08:00 +22°C° 0 mm 1 mps 744 mmHg 62%
    09:00 +24°C° 0 mm 1 mps 744 mmHg 58%
    10:00 +26°C° 0 mm 1 mps 744 mmHg 54%
    11:00 +27°C° 0 mm 1 mps 744 mmHg 52%
    12:00 +28°C° 0 mm 2 mps 743 mmHg 51%
    13:00 +29°C° 0 mm 2 mps 743 mmHg 49%
    14:00 +29°C° 0 mm 2 mps 743 mmHg 51%
    15:00 +29°C° 0 mm 3 mps 742 mmHg 53%
    16:00 +28°C° 0 mm 3 mps 742 mmHg 55%
    17:00 +27°C° 0 mm 3 mps 742 mmHg 61%
    18:00 +26°C° 0 mm 2 mps 742 mmHg 66%
    19:00 +25°C° 0 mm 2 mps 741 mmHg 72%
    20:00 +24°C° 0 mm 2 mps 742 mmHg 76%
    21:00 +23°C° 0 mm 2 mps 742 mmHg 80%
    22:00 +22°C° 0 mm 1 mps 742 mmHg 84%
    23:00 +22°C° 0 mm 1 mps 742 mmHg 85%

    Day after tomorrow, 19 June, Wednesday

    Time Temperature Precipitation Wind Pressure Humidity
    00:00 +21°C° 0 mm 1 mps 742 mmHg 86%
    01:00 +21°C° 0 mm 1 mps 742 mmHg 87%
    02:00 +21°C° 0 mm 1 mps 742 mmHg 88%
    03:00 +18°C° 0 mm 0 mps 741 mmHg 89%
    04:00 +18°C° 0 mm 0 mps 741 mmHg 89%
    05:00 +19°C° 0 mm 0 mps 741 mmHg 86%
    06:00 +20°C° 0 mm 0 mps 742 mmHg 82%
    07:00 +23°C° 0 mm 1 mps 742 mmHg 79%
    08:00 +25°C° 0 mm 1 mps 742 mmHg 73%
    09:00 +26°C° 0 mm 1 mps 741 mmHg 67%
    10:00 +28°C° 0 mm 2 mps 741 mmHg 61%
    11:00 +29°C° 0 mm 2 mps 741 mmHg 57%
    12:00 +29°C° 0 mm 2 mps 741 mmHg 54%
    13:00 +30°C° 0 mm 2 mps 741 mmHg 50%
    14:00 +30°C° 0.3 mm 2 mps 740 mmHg 52%
    15:00 +30°C° 0.3 mm 3 mps 740 mmHg 54%
    16:00 +30°C° 0.3 mm 3 mps 740 mmHg 56%
    17:00 +28°C° 0.8 mm 3 mps 740 mmHg 62%
    18:00 +27°C° 0.8 mm 2 mps 740 mmHg 68%
    19:00 +25°C° 0.8 mm 2 mps 740 mmHg 74%
    20:00 +24°C° 0.2 mm 1 mps 740 mmHg 74%
    21:00 +23°C° 0.2 mm 1 mps 740 mmHg 74%
    22:00 +22°C° 0.2 mm 1 mps 741 mmHg 74%
    23:00 +22°C° 0.1 mm 1 mps 740 mmHg 74%

    20 June, Thursday

    Time Temperature Precipitation Wind Pressure Humidity
    00:00 +21°C° 0.1 mm 1 mps 740 mmHg 74%
    01:00 +21°C° 0.1 mm 1 mps 740 mmHg 74%
    02:00 +21°C° 0 mm 1 mps 740 mmHg 74%
    03:00 +21°C° 0 mm 1 mps 740 mmHg 74%
    04:00 +18°C° 0 mm 0 mps 740 mmHg 75%
    05:00 +21°C° 0 mm 1 mps 741 mmHg 71%
    06:00 +22°C° 0 mm 1 mps 741 mmHg 67%
    07:00 +23°C° 0 mm 1 mps 741 mmHg 64%
    08:00 +25°C° 0 mm 1 mps 741 mmHg 59%
    09:00 +26°C° 0 mm 1 mps 741 mmHg 55%
    10:00 +28°C° 0 mm 2 mps 741 mmHg 50%
    11:00 +29°C° 0 mm 2 mps 741 mmHg 48%
    12:00 +30°C° 0 mm 1 mps 741 mmHg 46%
    13:00 +31°C° 0 mm 1 mps 741 mmHg 44%
    14:00 +31°C° 0 mm 1 mps 740 mmHg 43%
    15:00 +31°C° 0 mm 2 mps 740 mmHg 43%
    16:00 +31°C° 0 mm 2 mps 740 mmHg 43%
    17:00 +30°C° 0 mm 2 mps 740 mmHg 49%
    18:00 +29°C° 0 mm 1 mps 740 mmHg 54%
    19:00 +28°C° 0 mm 1 mps 740 mmHg 60%
    20:00 +26°C° 0 mm 1 mps 740 mmHg 63%
    21:00 +25°C° 0 mm 1 mps 740 mmHg 67%
    22:00 +24°C° 0 mm 1 mps 740 mmHg 70%
    23:00 +23°C° 0 mm 1 mps 740 mmHg 73%

    21 June, Friday

    Time Temperature Precipitation Wind Pressure Humidity
    00:00 +23°C° 0 mm 1 mps 740 mmHg 76%
    01:00 +22°C° 0 mm 1 mps 741 mmHg 78%
    02:00 +21°C° 0.1 mm 2 mps 741 mmHg 80%
    03:00 +20°C° 0.1 mm 3 mps 741 mmHg 82%
    04:00 +20°C° 0.1 mm 4 mps 741 mmHg 83%
    05:00 +21°C° 0 mm 4 mps 741 mmHg 80%
    06:00 +21°C° 0 mm 4 mps 741 mmHg 77%
    07:00 +22°C° 0 mm 4 mps 742 mmHg 73%
    08:00 +23°C° 0 mm 4 mps 742 mmHg 70%
    09:00 +25°C° 0 mm 5 mps 742 mmHg 67%
    10:00 +26°C° 0 mm 5 mps 742 mmHg 63%
    11:00 +27°C° 0 mm 4 mps 741 mmHg 59%
    12:00 +28°C° 0 mm 3 mps 741 mmHg 55%
    13:00 +29°C° 0 mm 3 mps 741 mmHg 51%
    14:00 +29°C° 0.1 mm 2 mps 741 mmHg 52%
    15:00 +29°C° 0.1 mm 2 mps 740 mmHg 54%
    16:00 +29°C° 0.1 mm 2 mps 740 mmHg 55%
    17:00 +28°C° 0.4 mm 1 mps 740 mmHg 59%
    18:00 +27°C° 0.4 mm 1 mps 740 mmHg 63%
    19:00 +26°C° 0.4 mm 1 mps 739 mmHg 68%
    20:00 +25°C° 0.4 mm 1 mps 740 mmHg 71%
    21:00 +22°C° 0.4 mm 0 mps 740 mmHg 74%
    22:00 +21°C° 0.4 mm 0 mps 740 mmHg 78%
    23:00 +21°C° 1.2 mm 0 mps 740 mmHg 80%

    22 June, Saturday

    Time Temperature Precipitation Wind Pressure Humidity
    00:00 +20°C° 1.2 mm 0 mps 740 mmHg 82%
    01:00 +20°C° 1.2 mm 0 mps 740 mmHg 84%
    02:00 +21°C° 0.6 mm 1 mps 740 mmHg 85%
    03:00 +20°C° 0.6 mm 2 mps 740 mmHg 87%
    04:00 +19°C° 0.6 mm 3 mps 740 mmHg 88%
    05:00 +20°C° 0.1 mm 3 mps 740 mmHg 86%
    06:00 +21°C° 0.1 mm 4 mps 740 mmHg 83%
    07:00 +21°C° 0.1 mm 4 mps 740 mmHg 81%
    08:00 +23°C° 0 mm 4 mps 740 mmHg 75%
    09:00 +25°C° 0 mm 4 mps 740 mmHg 69%
    10:00 +26°C° 0 mm 4 mps 740 mmHg 64%
    11:00 +27°C° 0.1 mm 4 mps 740 mmHg 60%
    12:00 +27°C° 0.1 mm 4 mps 740 mmHg 57%
    13:00 +28°C° 0.1 mm 4 mps 740 mmHg 54%
    14:00 +28°C° 0.4 mm 4 mps 740 mmHg 55%
    15:00 +28°C° 0.4 mm 4 mps 740 mmHg 57%
    16:00 +27°C° 0.4 mm 4 mps 740 mmHg 58%
    17:00 +26°C° 0.1 mm 4 mps 740 mmHg 63%
    18:00 +23°C° 0.1 mm 4 mps 740 mmHg 69%
    19:00 +22°C° 0.1 mm 4 mps 741 mmHg 74%
    20:00 +20°C° 0.7 mm 4 mps 741 mmHg 77%
    21:00 +19°C° 0.7 mm 3 mps 741 mmHg 80%
    22:00 +17°C° 0.7 mm 3 mps 742 mmHg 83%
    23:00 +17°C° 0.3 mm 3 mps 742 mmHg 83%
    Show more